AFR9 KJFK-LFPG

Flight info

Callsign AFR9
Flight time N/A
Altitude 37000
Route BETTE DCT ACK DCT KANNI N97B SUPRY/M083F380 NATU XETBO/N0478F390 DCT UNLID/M084F390 DCT LULOX/N0483F390 DCT NAKID DCT ANNET UM25 INGOR/N0451F280 UM25 LUKIP
Aircraft B772/H-SDE2E3FGHIJ5LORVWXY/LB1D1

Departure

Time 2026-05-05 03:50
Airport John F. Kennedy International Airport (KJFK)

Arrival

Time N/A
Airport Charles de Gaulle International Airport (LFPG)
Time Latitude Longitude Altitude Speed Heading
2026-05-05 03:10 40.64207 -73.79075 28 ft 0 kts 337°
2026-05-05 03:33 40.64206 -73.79075 28 ft 0 kts 337°
2026-05-05 03:34 40.64197 -73.79069 28 ft 2 kts 337°
2026-05-05 03:34 40.64183 -73.79062 28 ft 2 kts 337°
2026-05-05 03:35 40.64174 -73.79057 28 ft 2 kts 332°
2026-05-05 03:35 40.64163 -73.79044 28 ft 2 kts 302°
2026-05-05 03:35 40.64157 -73.79027 28 ft 2 kts 279°
2026-05-05 03:35 40.64157 -73.79008 28 ft 2 kts 256°
2026-05-05 03:36 40.64159 -73.78999 28 ft 0 kts 243°
2026-05-05 03:36 40.64152 -73.79019 28 ft 2 kts 246°
2026-05-05 03:36 40.64148 -73.79031 28 ft 3 kts 242°
2026-05-05 03:36 40.64127 -73.79068 28 ft 3 kts 227°
2026-05-05 03:37 40.64121 -73.79076 28 ft 0 kts 224°
2026-05-05 03:40 40.64120 -73.79076 28 ft 0 kts 224°
2026-05-05 03:40 40.64109 -73.79092 28 ft 5 kts 224°
2026-05-05 03:40 40.64070 -73.79142 28 ft 10 kts 225°
2026-05-05 03:40 40.64007 -73.79221 28 ft 14 kts 223°
2026-05-05 03:41 40.63996 -73.79336 28 ft 16 kts 297°
2026-05-05 03:41 40.64068 -73.79473 28 ft 19 kts 321°
2026-05-05 03:41 40.64212 -73.79510 28 ft 21 kts
2026-05-05 03:41 40.64364 -73.79488 28 ft 22 kts
2026-05-05 03:42 40.64514 -73.79506 28 ft 22 kts 355°
2026-05-05 03:42 40.64653 -73.79569 28 ft 22 kts 325°
2026-05-05 03:42 40.64781 -73.79685 28 ft 22 kts 336°
2026-05-05 03:42 40.64933 -73.79703 28 ft 22 kts
2026-05-05 03:43 40.65060 -73.79647 28 ft 19 kts 51°
2026-05-05 03:43 40.65129 -73.79488 28 ft 19 kts 62°
2026-05-05 03:43 40.65194 -73.79329 28 ft 20 kts 65°
2026-05-05 03:43 40.65192 -73.79151 28 ft 19 kts 107°
2026-05-05 03:44 40.65150 -73.78981 28 ft 19 kts 105°
2026-05-05 03:44 40.65143 -73.78802 28 ft 19 kts 80°
2026-05-05 03:44 40.65195 -73.78638 28 ft 17 kts 61°
2026-05-05 03:44 40.65252 -73.78497 28 ft 17 kts 63°
2026-05-05 03:45 40.65252 -73.78346 28 ft 17 kts 109°
2026-05-05 03:45 40.65192 -73.78215 28 ft 16 kts 123°
2026-05-05 03:45 40.65130 -73.78082 28 ft 17 kts 122°
2026-05-05 03:45 40.65129 -73.77999 28 ft 9 kts 52°
2026-05-05 03:46 40.65186 -73.77944 28 ft 10 kts 30°
2026-05-05 03:46 40.65256 -73.77891 28 ft 12 kts 30°
2026-05-05 03:46 40.65325 -73.77838 28 ft 6 kts 30°
2026-05-05 03:46 40.65332 -73.77769 28 ft 10 kts 115°
2026-05-05 03:47 40.65289 -73.77667 28 ft 14 kts 120°
2026-05-05 03:47 40.65231 -73.77538 28 ft 18 kts 121°
2026-05-05 03:47 40.65161 -73.77385 28 ft 21 kts 121°
2026-05-05 03:47 40.65080 -73.77208 28 ft 23 kts 120°
2026-05-05 03:48 40.64990 -73.77008 28 ft 26 kts 121°
2026-05-05 03:48 40.64890 -73.76792 28 ft 24 kts 121°
2026-05-05 03:48 40.64899 -73.76679 28 ft 15 kts 38°
2026-05-05 03:48 40.64998 -73.76598 28 ft 18 kts 30°
2026-05-05 03:49 40.65094 -73.76516 28 ft 12 kts 52°
2026-05-05 03:49 40.65077 -73.76399 28 ft 15 kts 121°
2026-05-05 03:49 40.65031 -73.76348 28 ft 6 kts 188°
2026-05-05 03:49 40.64977 -73.76389 28 ft 12 kts 212°
2026-05-05 03:50 40.64739 -73.76576 28 ft 73 kts 211°
2026-05-05 03:50 40.64107 -73.77068 28 ft 134 kts 211°
2026-05-05 03:50 40.63179 -73.77792 177 ft 166 kts 209°
2026-05-05 03:50 40.62241 -73.78533 890 ft 159 kts 212°
2026-05-05 03:51 40.61307 -73.79329 1401 ft 164 kts 212°
2026-05-05 03:51 40.60293 -73.80153 1652 ft 180 kts 211°
2026-05-05 03:51 40.59159 -73.81067 1896 ft 199 kts 212°
2026-05-05 03:51 40.57879 -73.81955 2189 ft 217 kts 198°
2026-05-05 03:52 40.56314 -73.82030 2529 ft 239 kts 170°
2026-05-05 03:52 40.54837 -73.80920 3006 ft 260 kts 137°
2026-05-05 03:52 40.54015 -73.78777 3504 ft 280 kts 103°
2026-05-05 03:52 40.53951 -73.76169 4137 ft 286 kts 91°
2026-05-05 03:53 40.54019 -73.73592 4785 ft 287 kts 90°
2026-05-05 03:53 40.54095 -73.70940 5361 ft 292 kts 90°
2026-05-05 03:53 40.54173 -73.68257 5970 ft 294 kts 89°
2026-05-05 03:53 40.54249 -73.65600 6568 ft 296 kts 89°
2026-05-05 03:54 40.54327 -73.62880 7154 ft 299 kts 88°
2026-05-05 03:54 40.54404 -73.60165 7763 ft 300 kts 88°
2026-05-05 03:54 40.54481 -73.57398 8327 ft 304 kts 88°
2026-05-05 03:54 40.54559 -73.54635 8904 ft 305 kts 88°
2026-05-05 03:55 40.54635 -73.51866 9467 ft 307 kts 87°
2026-05-05 03:55 40.54713 -73.49043 10040 ft 309 kts 87°
2026-05-05 03:55 40.54791 -73.46176 10360 ft 321 kts 87°
2026-05-05 03:55 40.54873 -73.43146 10554 ft 338 kts 87°
2026-05-05 03:56 40.54958 -73.40004 10742 ft 353 kts 87°
2026-05-05 03:56 40.55045 -73.36716 10931 ft 369 kts 87°
2026-05-05 03:56 40.55134 -73.33292 11147 ft 384 kts 88°
2026-05-05 03:56 40.55226 -73.29724 11410 ft 396 kts 88°
2026-05-05 03:57 40.55319 -73.26093 11851 ft 403 kts 88°
2026-05-05 03:57 40.55413 -73.22363 12392 ft 408 kts 88°
2026-05-05 03:57 40.55506 -73.18634 12995 ft 411 kts 88°
2026-05-05 03:57 40.55597 -73.14928 13580 ft 415 kts 88°
2026-05-05 03:58 40.55690 -73.11094 14122 ft 420 kts 88°
2026-05-05 03:58 40.55782 -73.07246 14740 ft 423 kts 88°
2026-05-05 03:58 40.55895 -73.03371 15396 ft 425 kts 84°
2026-05-05 03:58 40.56386 -72.99585 15987 ft 427 kts 73°
2026-05-05 03:59 40.57274 -72.95870 16575 ft 430 kts 70°
2026-05-05 03:59 40.58239 -72.92119 17185 ft 433 kts 69°
2026-05-05 03:59 40.59198 -72.88399 17754 ft 436 kts 69°
2026-05-05 03:59 40.60178 -72.84585 18350 ft 439 kts 69°
2026-05-05 04:00 40.61146 -72.80810 18901 ft 443 kts 69°
2026-05-05 04:00 40.62126 -72.76975 19500 ft 445 kts 69°
2026-05-05 04:00 40.63121 -72.73077 20085 ft 448 kts 69°
2026-05-05 04:00 40.64112 -72.69190 20618 ft 452 kts 69°